Regional Weather Roundup
Issued by NWS Newport/Morehead, NC

Home | Current Version | Previous Version | Text Only | Print | Product List | Glossary On
Versions: 1 2 3 4 5 6 7 8 9 10 11 12 13 14 15 16 17 18 19 20 21 22 23 24 25 26 27 28 29 30 31 32 33 34 35 36 37 38 39 40 41 42 43 44 45 46 47 48 49 50
000
ASUS42 KMHX 220322
RWRMHX
WEATHER ROUNDUP FOR EASTERN NORTH CAROLINA
NATIONAL WEATHER SERVICE NEWPORT/MOREHEAD CITY NC
1000 PM EST SUN DEC 21 2014

NOTE: "FAIR" INDICATES FEW OR NO CLOUDS BELOW 12,000 FEET
WITH NO SIGNIFICANT WEATHER AND/OR OBSTRUCTIONS TO VISIBILITY

NCZ015>017-031-032-045>047-102-103-220400-
NORTH COAST

CITY           SKY/WX    TMP DP  RH WIND       PRES   REMARKS
EDENTON          N/A     38  33  82 NE5       30.26S
ELIZABETH CITY PTCLDY    41  34  76 N8        30.26F
KITTY HAWK     PTCLDY    46  41  83 NE8       30.23F
MANTEO         PTCLDY    46  41  83 NE15      30.24S

$$

NCZ045>047-081-094-103-104-220400-
CENTRAL COAST

CITY           SKY/WX    TMP DP  RH WIND       PRES   REMARKS
FRISCO         CLOUDY    48  45  89 NE10      30.21F
SWANQUARTER      N/A     45 N/A N/A NE9G15    30.18S

$$

NCZ095-097-098-100-101-220400-
SOUTHERN COAST

CITY           SKY/WX    TMP DP  RH WIND       PRES   REMARKS
BEAUFORT       LGT RAIN  44  42  93 NE12G21   30.20F
CEDAR ISLAND     N/A     46 N/A N/A N18       30.24S
JACKSONVILLE   RAIN      43  41  93 NE12      30.20F FOG
PINEY ISLAND   LGT RAIN  47  42  83 N12       30.21F
WILMINGTON     LGT RAIN  43  41  93 NE14      30.17F


$$

NCZ011>013-027>030-043-044-078>080-089-090>093-098-220400-
COASTAL PLAIN

CITY           SKY/WX    TMP DP  RH WIND       PRES   REMARKS
AHOSKIE        PTCLDY    34  29  83 N3        30.29F
CLINTON        CLOUDY    46  37  72 NE5       30.21F
ELIZABETHTOWN  RAIN      43  39  85 CALM      30.19F
GOLDSBORO      CLOUDY    45  40  85 NE10      30.21F
GREENVILLE     CLOUDY    43  36  75 NE6       30.27R
HAVELOCK       LGT RAIN  44  40  85 NE14      30.22F
KENANSVILLE    CLOUDY    44  36  74 NE3       30.22F
KINSTON        CLOUDY    44  37  75 NE12      30.25S
NEW BERN       RAIN      44  39  82 NE7       30.24F
RICHLANDS      CLOUDY    43  37  81 N8        30.21S
ROCKY MOUNT    CLOUDY    42  34  73 NE7       30.26S
WASHINGTON     CLOUDY    40  34  79 NE6       30.25S
WHITEVILLE     CLOUDY    43  40  88 NE8       30.18F

$$

AMZ130-135-150-152-154-156-158-170-250-252-270-ANZ085-086-088-633-658-670-220400-
MARINE OBSERVATIONS

STATION/POSITION TIME  TEMP    WIND        PRES    WAVE   SWELL
                       AIR SEA DIR/SP/G            HT/PER HT/PER
                 (UTC) (F)     (DEG/KT/KT) (MB)    (FT/S) (FT/S)
CHESAPEAKE LIGHT 0300   43      60/ 14/ 16 1026.3
64 E VA BEACH    0300   48 54   50/ 14/ 16 1024.8    3/ 4   2/10
DUCK             0300   46 46   40/ 19/ 20 1023.5
2 E DUCK         0300      46                N/A     3/ 4
10 NE DUCK       0200      50                N/A     3/11
OREGON INLET     0300   47 48   30/ 13/ 18 1023.5
13E OREGON INLT  0300      52                N/A     4/ 5
HATTERAS CG      0300   48 49   30/ 11/ 15 1023.0
DIAMOND BUOY     0300   57                 1022.0    4/ 5
17 S OCRACOKE    NOT AVBL
CAPE LOOKOUT     0300   46      20/ 16/ 19 1022.0
BEAUFORT LAB     0300   44 51   20/ 11/ 17 1021.2
30 SE NEW RIVER  0300   52 60   40/ 23/ 27 1021.1    6/ 6   2/ 9
5 SE WRIGHTSVLE  NOT AVBL
225 S CAPE HAT   0242   71 71   80/ 16/ 19 1019.2    6/ 7   2/ 9
41 SE CHARLESTON 0300   64 68   40/ 21/ 25 1017.9    7/ 7   2/14

$$



USA.gov is the U.S. government's official web portal to all federal, state and local government web resources and services.